Погода в Табарке

Тунис     36°57′03″N   8°45′28″E
темп.,
°C
ветер,
м/с
пор.,
м/с
влажн.,
%
обл.,
%
осадки,
мм/ч
давл.,
гПа
погр.,
м
28 февраля, вс
вс2801:00+11в11884 0.0 1023138
04:00+11вюв118947 0.0 1023141
07:00+11юв228549 0.0 1023111
10:00+14всв227227 0.0 1025393
13:00+15ссв547513 0.0 1024335
16:00+17св33690 0.0 1023268
19:00+15в56750 0.0 102396
22:00+12вюв45830 0.0 1025173
1 марта, пн
пн101:00+12ююв33740 0.0 102583
04:00+12ююв33700 0.0 102478
07:00+12ююв337111 0.0 102578
10:00+16юв23610 0.0 1025192
13:00+19в23510 0.0 1024451
16:00+19вюв34540 0.0 1023459
19:00+15вюв59660 0.0 1024161
22:00+13юв558051 0.0 1026106
2 марта, вт
вт201:00+12юв457775 0.0 1025101
04:00+12юв4580100 0.0 1025124
07:00+11юв4480100 0.0 1025156
10:00+15юв4969100 0.0 1027646
13:00+17юв576495 0.0 1026459
16:00+17вюв7106591 0.0 1025567
19:00+14вюв7137761 0.0 1026533
22:00+13юв814810 0.0 1028572
3 марта, ср
ср301:00+12вюв612840 0.0 1028600
04:00+11вюв5108617 0.0 1027527
07:00+11вюв511849 0.0 1028541
10:00+15вюв710700 0.0 10281155
13:00+16вюв7106720 0.0 1026911
16:00+16вюв586621 0.0 1024640
19:00+14вюв6117459 0.1 1025473
22:00+13вюв61272100 0.0 1025523
4 марта, чт
чт401:00+13юв41077100 0.0 1024527
04:00+12юв3885100 0.7 1022380
07:00+12вюв61288100 2.8 1021532
10:00+14вюв81181100 0.4 1020976
13:00+16вюв7970100 0.6 1018721
16:00+14вюв6118290 0.6 1016742
19:00+13вюв5128576 0.6 1016591
22:00+13юв61284100 0.0 1017517